TimeEST,TemperatureF,Dew PointF,Humidity,Sea Level PressureIn,VisibilityMPH,Wind Direction,Wind SpeedMPH,Gust SpeedMPH,PrecipitationIn,Events,Conditions,WindDirDegrees,DateUTC
12:53 AM,21.0,10.9,65,30.13,6.0,WNW,11.5,-,0.00,Snow,Light Snow,290,2013-01-21 05:53:00
1:05 AM,21.2,12.2,68,30.08,5.0,Variable,6.9,-,0.00,Snow,Light Snow,0,2013-01-21 06:05:00
1:39 AM,21.2,10.4,63,30.07,8.0,West,9.2,-,0.00,Snow,Light Snow,280,2013-01-21 06:39:00
1:53 AM,19.9,12.0,71,30.11,6.0,West,5.8,-,0.00,Snow,Light Snow,260,2013-01-21 06:53:00
2:28 AM,19.4,12.2,74,30.06,10.0,WSW,4.6,-,0.00,,Overcast,250,2013-01-21 07:28:00
2:53 AM,21.0,12.0,68,30.10,6.0,West,5.8,-,0.00,Snow,Light Snow,260,2013-01-21 07:53:00
3:37 AM,19.4,14.0,80,30.05,4.0,SW,5.8,-,0.00,Snow,Light Snow,230,2013-01-21 08:37:00
3:53 AM,19.9,14.0,78,30.09,2.5,SW,6.9,-,0.00,Snow,Light Snow,230,2013-01-21 08:53:00
4:08 AM,19.4,14.0,80,30.04,2.0,WSW,8.1,-,0.00,Snow,Light Snow,250,2013-01-21 09:08:00
4:15 AM,19.4,14.0,80,30.04,1.2,WSW,6.9,-,0.00,Snow,Light Snow,250,2013-01-21 09:15:00
4:23 AM,19.4,14.0,80,30.04,1.0,WSW,8.1,-,0.00,Snow,Light Snow,250,2013-01-21 09:23:00
4:38 AM,19.4,14.0,80,30.03,1.2,WSW,10.4,-,0.00,Snow,Light Snow,250,2013-01-21 09:38:00
4:50 AM,19.4,14.0,80,30.03,1.5,WSW,6.9,-,0.00,Snow,Light Snow,250,2013-01-21 09:50:00
4:53 AM,19.0,14.0,81,30.07,1.5,WSW,6.9,-,0.00,Snow,Light Snow,250,2013-01-21 09:53:00
5:06 AM,19.4,14.0,80,30.03,1.0,WSW,8.1,-,0.00,Snow,Light Snow,240,2013-01-21 10:06:00
5:16 AM,17.6,12.2,79,30.03,1.5,WSW,9.2,-,0.01,Snow,Light Snow,240,2013-01-21 10:16:00
5:26 AM,17.6,12.2,79,30.02,1.8,SW,6.9,-,0.01,Snow,Light Snow,230,2013-01-21 10:26:00
5:34 AM,17.6,12.2,79,30.02,2.0,WSW,6.9,-,0.01,Snow,Light Snow,240,2013-01-21 10:34:00
5:51 AM,17.6,12.2,79,30.02,1.5,SW,8.1,-,0.01,Snow,Light Snow,230,2013-01-21 10:51:00
5:53 AM,18.0,12.9,81,30.06,1.8,WSW,8.1,-,0.01,Snow,Light Snow,240,2013-01-21 10:53:00
6:04 AM,17.6,12.2,79,30.01,2.0,SW,8.1,-,0.00,Snow,Light Snow,230,2013-01-21 11:04:00
6:11 AM,17.6,12.2,79,30.01,1.5,WSW,9.2,-,0.00,Snow,Light Snow,240,2013-01-21 11:11:00
6:53 AM,18.0,12.9,81,30.06,2.0,WSW,8.1,-,0.00,Snow,Light Snow,240,2013-01-21 11:53:00
7:35 AM,17.6,12.2,79,30.01,3.0,SW,9.2,-,0.00,Snow,Light Snow,230,2013-01-21 12:35:00
7:53 AM,17.1,12.0,81,30.05,4.0,SW,9.2,-,0.00,Snow,Light Snow,230,2013-01-21 12:53:00
8:53 AM,18.0,12.0,78,30.04,8.0,WSW,4.6,-,0.00,,Overcast,250,2013-01-21 13:53:00
9:53 AM,18.0,10.9,74,30.03,2.0,SW,6.9,-,0.00,Snow,Light Snow,230,2013-01-21 14:53:00
9:57 AM,17.6,10.4,73,29.99,1.0,SW,8.1,-,0.00,Snow,Light Snow,220,2013-01-21 14:57:00
10:10 AM,17.6,10.4,73,29.98,2.0,SW,5.8,-,0.00,Snow,Light Snow,230,2013-01-21 15:10:00
10:29 AM,17.6,10.4,73,29.98,4.0,SW,9.2,-,0.00,Snow,Light Snow,230,2013-01-21 15:29:00
10:53 AM,19.0,9.0,65,30.01,7.0,SW,8.1,-,0.00,,Overcast,230,2013-01-21 15:53:00
11:53 AM,19.0,7.0,59,29.98,10.0,SW,11.5,-,N/A,,Overcast,230,2013-01-21 16:53:00
12:53 PM,19.9,5.0,52,29.94,10.0,SW,15.0,-,N/A,,Overcast,230,2013-01-21 17:53:00
1:53 PM,19.9,8.1,60,29.94,10.0,West,18.4,-,N/A,,Overcast,260,2013-01-21 18:53:00
2:21 PM,19.4,10.4,68,29.91,1.5,West,18.4,26.5,0.00,Snow,Light Snow,280,2013-01-21 19:21:00
2:24 PM,19.4,12.2,74,29.91,0.8,West,18.4,26.5,0.00,Snow,Light Snow,270,2013-01-21 19:24:00
2:32 PM,19.4,12.2,74,29.91,1.2,West,15.0,-,0.00,Snow,Light Snow,260,2013-01-21 19:32:00
2:37 PM,19.4,10.4,68,29.91,2.5,WSW,18.4,26.5,0.00,Snow,Light Snow,250,2013-01-21 19:37:00
2:45 PM,19.4,10.4,68,29.90,4.0,West,17.3,26.5,0.00,Snow,Light Snow,260,2013-01-21 19:45:00
2:53 PM,19.9,9.0,62,29.94,9.0,West,17.3,25.3,0.00,,Mostly Cloudy,260,2013-01-21 19:53:00
3:34 PM,19.4,10.4,68,29.91,1.8,West,15.0,-,0.00,Snow,Light Snow,270,2013-01-21 20:34:00
3:44 PM,19.4,10.4,68,29.91,3.0,WSW,15.0,-,0.00,Snow,Light Snow,250,2013-01-21 20:44:00
3:53 PM,19.0,10.9,71,29.96,3.0,West,12.7,-,0.00,Snow,Light Snow,270,2013-01-21 20:53:00
4:00 PM,19.4,10.4,68,29.92,7.0,West,13.8,-,0.00,Snow,Light Snow,270,2013-01-21 21:00:00
4:08 PM,17.6,10.4,73,29.92,1.8,West,16.1,-,0.00,Snow,Light Snow,270,2013-01-21 21:08:00
4:15 PM,17.6,12.2,79,29.93,0.8,West,12.7,23.0,0.00,Snow,Light Snow,280,2013-01-21 21:15:00
4:29 PM,17.6,10.4,73,29.93,1.2,West,10.4,-,0.00,Snow,Light Snow,270,2013-01-21 21:29:00
4:32 PM,17.6,10.4,73,29.93,3.0,West,13.8,-,0.00,Snow,Light Snow,260,2013-01-21 21:32:00
4:40 PM,17.6,10.4,73,29.93,1.2,West,24.2,29.9,0.00,Snow,Light Snow,270,2013-01-21 21:40:00
4:43 PM,17.6,10.4,73,29.93,0.8,WSW,21.9,29.9,0.00,Snow,Light Snow,250,2013-01-21 21:43:00
4:53 PM,17.1,10.0,74,29.98,1.0,West,17.3,26.5,0.00,Snow,Light Snow,260,2013-01-21 21:53:00
5:00 PM,15.8,8.6,73,29.94,2.5,West,13.8,25.3,0.00,Snow,Light Snow,260,2013-01-21 22:00:00
5:15 PM,15.8,10.4,79,29.94,3.0,West,13.8,21.9,0.00,Snow,Light Snow,270,2013-01-21 22:15:00
5:53 PM,16.0,9.0,74,30.00,3.0,West,15.0,24.2,0.00,Snow,Light Snow,260,2013-01-21 22:53:00
6:05 PM,15.8,8.6,73,29.95,1.8,WSW,16.1,-,0.00,Snow,Light Snow,250,2013-01-21 23:05:00
6:09 PM,15.8,8.6,73,29.96,0.8,WSW,13.8,-,0.00,Snow,Light Snow,240,2013-01-21 23:09:00
6:25 PM,15.8,10.4,79,29.96,0.5,WSW,17.3,-,0.00,Snow,Snow,240,2013-01-21 23:25:00
6:53 PM,15.1,10.0,80,30.01,0.5,SW,13.8,-,0.01,Snow,Snow,230,2013-01-21 23:53:00
7:05 PM,14.0,8.6,79,29.96,1.0,WSW,12.7,-,0.00,Snow,Light Snow,240,2013-01-22 00:05:00
7:09 PM,14.0,8.6,79,29.96,2.0,WSW,13.8,-,0.00,Snow,Light Snow,240,2013-01-22 00:09:00
7:17 PM,14.0,8.6,79,29.96,1.0,WSW,9.2,18.4,0.00,Snow,Light Snow,240,2013-01-22 00:17:00
7:20 PM,14.0,8.6,79,29.96,0.5,SW,10.4,-,0.00,Snow,Snow,230,2013-01-22 00:20:00
7:53 PM,15.1,10.0,80,30.01,1.0,West,8.1,-,0.03,Snow,Light Snow,260,2013-01-22 00:53:00
7:58 PM,15.8,10.4,79,29.97,1.2,WSW,8.1,-,0.00,Snow,Light Snow,250,2013-01-22 00:58:00
8:11 PM,14.0,10.4,86,29.97,0.8,WSW,10.4,-,0.00,Snow,Light Snow,240,2013-01-22 01:11:00
8:30 PM,14.0,8.6,79,29.97,0.5,WSW,12.7,18.4,0.00,Snow,Snow,250,2013-01-22 01:30:00
8:53 PM,14.0,9.0,80,30.02,0.8,West,9.2,-,0.01,Snow,Light Snow,280,2013-01-22 01:53:00
8:56 PM,14.0,8.6,79,29.97,1.0,West,8.1,-,0.00,Snow,Light Snow,280,2013-01-22 01:56:00
9:05 PM,14.0,8.6,79,29.98,1.5,West,8.1,-,0.00,Snow,Light Snow,260,2013-01-22 02:05:00
9:09 PM,14.0,8.6,79,29.98,2.0,West,10.4,-,0.00,Snow,Light Snow,260,2013-01-22 02:09:00
9:22 PM,14.0,3.2,62,29.98,5.0,West,10.4,-,0.00,Snow,Light Snow,270,2013-01-22 02:22:00
9:47 PM,14.0,5.0,67,29.99,2.5,West,13.8,-,0.00,Snow,Light Snow,270,2013-01-22 02:47:00
9:48 PM,12.9,5.0,71,30.04,2.0,West,13.8,-,0.00,Snow,Light Snow,270,2013-01-22 02:48:00
9:56 PM,12.2,6.8,79,29.99,1.5,West,13.8,19.6,0.00,Snow,Light Snow,270,2013-01-22 02:56:00
10:05 PM,12.2,6.8,79,29.99,0.8,West,13.8,-,0.00,Snow,Light Snow,270,2013-01-22 03:05:00
10:13 PM,12.2,6.8,79,29.99,1.2,West,13.8,-,0.00,Snow,Light Snow,270,2013-01-22 03:13:00
10:53 PM,12.0,3.0,67,30.05,2.0,WNW,18.4,27.6,0.01,Snow,Light Snow,290,2013-01-22 03:53:00
10:58 PM,12.2,3.2,67,30.00,1.0,WNW,17.3,27.6,0.00,Snow,Light Snow,290,2013-01-22 03:58:00
11:06 PM,12.2,3.2,67,30.00,0.8,West,17.3,27.6,0.00,Snow,Light Snow,280,2013-01-22 04:06:00
11:17 PM,10.4,3.2,73,30.00,1.2,West,11.5,20.7,0.00,Snow,Light Snow,280,2013-01-22 04:17:00
11:23 PM,12.2,3.2,67,30.01,3.0,WNW,11.5,20.7,0.00,Snow,Light Snow,290,2013-01-22 04:23:00
11:28 PM,10.4,3.2,73,30.01,1.5,West,18.4,26.5,0.00,Snow,Light Snow,280,2013-01-22 04:28:00
11:32 PM,10.4,3.2,73,30.01,0.8,WNW,18.4,28.8,0.00,Snow,Light Snow,290,2013-01-22 04:32:00
11:40 PM,10.4,1.4,67,30.01,1.2,West,10.4,25.3,0.00,Snow,Light Snow,280,2013-01-22 04:40:00
11:45 PM,10.4,1.4,67,30.01,3.0,West,11.5,24.2,0.00,Snow,Light Snow,280,2013-01-22 04:45:00
11:53 PM,10.9,1.0,64,30.06,5.0,West,11.5,19.6,0.00,Snow,Light Snow,280,2013-01-22 04:53:00